Preview of NWS' New Version of Forecast
This preview is not operational and should not be used for support decisions.

Regional Weather Roundup (RWR)

Issued by National Weather Service (NWS)

                            
000
ASUS45 KABQ 200110
RWRNM 
NEW MEXICO REGIONAL WEATHER ROUNDUP
NATIONAL WEATHER SERVICE ALBUQUERQUE NM
700 PM MDT SUN MAY 19 2019

NOTE: "FAIR" MEANS FEW OR NO CLOUDS BELOW 12,000 FEET AGL WITH NO
       SIGNIFICANT WEATHER OR OBSTRUCTIONS TO VISION.

      THIS PRODUCT IS RELEASED AS TWO VERSIONS.  ONE VERSION NEAR
      THE TOP OF THE HOUR CONTAINING PRELIMINARY DATA FROM ALBUQUERQUE
      AND OTHER STATIONS.  A FINAL VERSION WITH ADDITIONAL DATA IS 
      ISSUED ABOUT 10 MINUTES AFTER THE HOUR.
 
NMZ501-503-504-510>518-200200-
NORTHWEST PLATEAU/NORTHCENTRAL MOUNTAINS
  
CITY           SKY/WX    TMP DP  RH WIND       PRES   REMARKS
FARMINGTON     PTSUNNY   64  19  17 SW22G32   29.76R                  
LOS ALAMOS       N/A     58  14  18 S8        29.93F                  
SANTA FE       FAIR      63  18  17 S13       29.88F                  
ANGEL FIRE       N/A     50  24  37 S9        29.99S                  

$$
NMZ402-403-502-505>509-200200-
WESTCENTRAL MOUNTAINS/SOUTHWEST MOUNTAINS
  
CITY           SKY/WX    TMP DP  RH WIND       PRES   REMARKS
GALLUP         FAIR      59  17  19 SW21G32   29.83S                  
GRANTS         FAIR      61  15  16 W8G16     29.87S                  
SILVER CITY    FAIR      71  17  12 SW17      29.87F                  

$$
NMZ407-409-411-412-200200-
SOUTHERN DESERTS
  
CITY           SKY/WX    TMP DP  RH WIND       PRES   REMARKS
DEMING         FAIR      79  23  12 W13       29.80S                  
LAS CRUCES     FAIR      82  23  11 SW17G23   29.81S                  
HOLLOMAN AFB   FAIR      81  23  12 S12       29.81F                  
ALAMOGORDO     FAIR      79  21  11 S12G18    29.80F                  
T OR C         FAIR      78  18  10 SW22G32   29.79F                  

$$
NMZ519>523-200200-
CENTRAL VALLEYS/CENTRAL HIGHLANDS
  
CITY           SKY/WX    TMP DP  RH WIND       PRES   REMARKS
ALBUQUERQUE    CLOUDY    70  20  15 S21       29.81F                  
DOUBLE EAGLE   CLOUDY    66  23  19 S14       29.84F                  
MORIARTY ARPT  FAIR      65  22  19 S8        29.90S                  
CLINES CORNERS FAIR      59  21  23 S8        29.95F                  
BELEN          FAIR      70  18  14 S9        29.79F                  
SOCORRO        FAIR      75  15  10 S24G33    29.78S                  

$$
NMZ524>526-539-540-200200-
SOUTHCENTRAL MOUNTAINS
  
CITY           SKY/WX    TMP DP  RH WIND       PRES   REMARKS
RUIDOSO        FAIR      64  18  16 S14       29.98S                  

$$
NMZ527>531-200200-
NORTHEAST HIGHLANDS/NORTHEAST PLAINS
  
CITY           SKY/WX    TMP DP  RH WIND       PRES   REMARKS
LAS VEGAS      FAIR      58  20  22 S12       29.94R                  
RATON          FAIR      62  24  23 S22G32    29.87F                  
CLAYTON        FAIR      65  34  31 SE15      29.87F                  

$$
NMZ532>537-200200-
EASTCENTRAL PLAINS
  
CITY           SKY/WX    TMP DP  RH WIND       PRES   REMARKS
SANTA ROSA     FAIR      74  21  13 S13       29.81F                  
TUCUMCARI      FAIR      79  22  12 SW15      29.78S                  
CANNON AFB     FAIR      75  30  19 SE15      29.85S                  
CLOVIS AIRPORT FAIR      74  32  21 S22       29.86R                  

$$
NMZ028-029-538-200200-
SOUTHEAST PLAINS
  
CITY           SKY/WX    TMP DP  RH WIND       PRES   REMARKS
ROSWELL        FAIR      85  20   9 S16       29.76S                  
ARTESIA        FAIR      84  28  13 SE14      29.77S                  
CARLSBAD       FAIR      85  27  12 SE15      29.74S                  
HOBBS          FAIR      81  27  13 SE14G21   29.82F                  


$$